This is the latest recevied weather packets stored in our database for station/object KC1TLF-15. If no packets are shown the sender has not sent any weather packets the latest 10 day(s).
| Time | Temp. | Humidity | Pressure | Rain* | Wind** | Luminosity | Snow |
|---|---|---|---|---|---|---|---|
| 1778164270 | 13.89° C | 62% | 1016.1 hPa | 0 mm | 0.45 m/s, 324° | 787 W/m² | - |
| 1778163669 | 15° C | 62% | 1015.9 hPa | 0 mm | 0.45 m/s, 327° | 769 W/m² | - |
| 1778163070 | 14.44° C | 63% | 1015.8 hPa | 0 mm | 0.45 m/s, 330° | 219 W/m² | - |
| 1778162470 | 13.89° C | 61% | 1016 hPa | 0 mm | 0 m/s | 146 W/m² | - |
| 1778161870 | 13.89° C | 59% | 1016.1 hPa | 0 mm | 0.45 m/s, 310° | 215 W/m² | - |
| 1778161271 | 15° C | 62% | 1015.9 hPa | 0 mm | 0.45 m/s, 291° | 104 W/m² | - |
| 1778160670 | 13.33° C | 63% | 1015.8 hPa | 0 mm | 0.45 m/s, 321° | 567 W/m² | - |
| 1778160069 | 13.33° C | 66% | 1016.1 hPa | 0 mm | 0.45 m/s, 326° | 543 W/m² | - |
| 1778159470 | 13.89° C | 68% | 1016.3 hPa | 0 mm | 0.45 m/s, 320° | 537 W/m² | - |
| 1778158871 | 13.33° C | 68% | 1016.5 hPa | 0 mm | 0.45 m/s, 19° | 496 W/m² | - |
| 1778158270 | 12.78° C | 70% | 1016.3 hPa | 0 mm | 0.89 m/s, 312° | 436 W/m² | - |
| 1778157670 | 12.22° C | 73% | 1016.5 hPa | 0 mm | 0.89 m/s, 328° | 390 W/m² | - |
| 1778157069 | 12.22° C | 72% | 1016.5 hPa | 0 mm | 1.79 m/s, 277° | 375 W/m² | - |
| 1778156470 | 12.22° C | 77% | 1016.4 hPa | 0 mm | 0 m/s | 344 W/m² | - |
| 1778155871 | 11.67° C | 77% | 1016.5 hPa | 0 mm | 0.45 m/s, 321° | 301 W/m² | - |
| 1778155270 | 11.11° C | 79% | 1016.5 hPa | 0 mm | 0.89 m/s, 283° | 248 W/m² | - |
| 1778154670 | 10.56° C | 80% | 1016.4 hPa | 0 mm | 0 m/s | - | - |
| 1778154070 | 10.56° C | 82% | 1016.4 hPa | 0 mm | 0 m/s | - | - |
| 1778153471 | 10° C | 85% | 1016.4 hPa | 0 mm | 0 m/s | - | - |
| 1778152870 | 9.44° C | 89% | 1016.5 hPa | 0 mm | 0 m/s | - | - |
| 1778152270 | 8.89° C | 89% | 1016.1 hPa | 0 mm | 0 m/s | - | - |
| 1778151670 | 8.89° C | 93% | 1016.2 hPa | 0 mm | 0 m/s | - | - |
| 1778151069 | 8.89° C | 93% | 1016 hPa | 0 mm | 0 m/s | - | - |
| 1778150472 | 8.89° C | 93% | 1016 hPa | 0 mm | 0 m/s | - | - |
| 1778149869 | 8.89° C | 91% | 1015.6 hPa | 0 mm | 0 m/s | - | - |
* Rain latest hour (hover to see other rain measurements)
** Current wind speed in m/s (hover to see current wind gust speed)